Time,TemperatureF,DewpointF,PressureIn,WindDirection,WindDirectionDegrees,WindSpeedMPH,WindSpeedGustMPH,Humidity,HourlyPrecipIn,Conditions,Clouds,dailyrainin,SoftwareType,DateUTC
2014-12-20 00:00:00,21.6,18.9,30.32,WNW,288,0.0,0.0,89,0.00,,---,0.00,VWS V15.00,2014-12-20 06:00:00,
2014-12-20 00:05:00,21.5,18.8,30.32,WNW,288,3.0,3.0,89,0.00,,---,0.00,VWS V15.00,2014-12-20 06:05:00,
2014-12-20 00:10:00,21.3,18.8,30.32,WNW,301,2.0,3.0,90,0.00,,---,0.00,VWS V15.00,2014-12-20 06:10:00,
2014-12-20 00:15:00,21.7,19.2,30.32,WNW,302,1.0,1.0,90,0.00,,---,0.00,VWS V15.00,2014-12-20 06:15:00,
2014-12-20 00:20:00,21.6,19.1,30.32,WNW,302,0.0,0.0,90,0.00,,---,0.00,VWS V15.00,2014-12-20 06:20:00,
2014-12-20 00:25:00,21.3,18.6,30.32,WNW,302,3.0,4.0,89,0.00,,---,0.00,VWS V15.00,2014-12-20 06:25:00,
2014-12-20 00:30:00,21.4,18.9,30.32,WNW,302,0.0,0.0,90,0.00,,---,0.00,VWS V15.00,2014-12-20 06:30:00,
2014-12-20 00:35:00,21.5,19.0,30.32,WNW,302,0.0,0.0,90,0.00,,---,0.00,VWS V15.00,2014-12-20 06:35:00,
2014-12-20 00:40:00,21.5,19.0,30.32,WNW,302,0.0,0.0,90,0.00,,---,0.00,VWS V15.00,2014-12-20 06:40:00,
2014-12-20 00:45:00,21.3,18.8,30.32,WNW,302,0.0,1.0,90,0.00,,---,0.00,VWS V15.00,2014-12-20 06:45:00,
2014-12-20 00:50:00,21.2,18.7,30.32,WNW,302,0.0,0.0,90,0.00,,---,0.00,VWS V15.00,2014-12-20 06:50:00,
2014-12-20 00:55:00,21.1,18.6,30.32,WNW,302,1.0,1.0,90,0.00,,---,0.00,VWS V15.00,2014-12-20 06:55:00,
2014-12-20 01:00:00,21.0,18.5,30.32,WNW,302,0.0,0.0,90,0.00,,---,0.00,VWS V15.00,2014-12-20 07:00:00,
2014-12-20 01:05:00,20.9,18.4,30.32,WNW,302,1.0,1.0,90,0.00,,---,0.00,VWS V15.00,2014-12-20 07:05:00,
2014-12-20 01:10:00,21.1,18.9,30.32,WNW,302,2.0,2.0,91,0.00,,---,0.00,VWS V15.00,2014-12-20 07:10:00,
2014-12-20 01:15:00,21.2,19.0,30.32,WNW,302,1.0,1.0,91,0.00,,---,0.00,VWS V15.00,2014-12-20 07:15:00,
2014-12-20 01:20:00,21.2,19.0,30.32,WNW,302,0.0,0.0,91,0.00,,---,0.00,VWS V15.00,2014-12-20 07:20:00,
2014-12-20 01:25:00,21.1,18.9,30.32,WNW,302,0.0,0.0,91,0.00,,---,0.00,VWS V15.00,2014-12-20 07:25:00,
2014-12-20 01:30:00,21.0,18.5,30.32,WNW,302,0.0,0.0,90,0.00,,---,0.00,VWS V15.00,2014-12-20 07:30:00,
2014-12-20 01:35:00,20.9,18.4,30.32,WNW,302,0.0,2.0,90,0.00,,---,0.00,VWS V15.00,2014-12-20 07:35:00,
2014-12-20 01:40:00,20.8,18.3,30.32,WNW,302,0.0,0.0,90,0.00,,---,0.00,VWS V15.00,2014-12-20 07:40:00,
2014-12-20 01:45:00,20.7,18.5,30.32,WNW,302,0.0,0.0,91,0.00,,---,0.00,VWS V15.00,2014-12-20 07:45:00,
2014-12-20 01:49:00,20.8,18.6,30.32,WNW,302,0.0,0.0,91,0.00,,---,0.00,VWS V15.00,2014-12-20 07:49:00,
2014-12-20 01:54:00,20.8,18.6,30.33,WNW,302,1.0,1.0,91,0.00,,---,0.00,VWS V15.00,2014-12-20 07:54:00,
2014-12-20 01:59:00,20.7,18.5,30.33,WNW,302,0.0,0.0,91,0.00,,---,0.00,VWS V15.00,2014-12-20 07:59:00,
2014-12-20 02:04:00,20.7,18.5,30.33,WNW,302,0.0,0.0,91,0.00,,---,0.00,VWS V15.00,2014-12-20 08:04:00,
2014-12-20 02:09:00,20.7,18.5,30.33,WNW,302,2.0,3.0,91,0.00,,---,0.00,VWS V15.00,2014-12-20 08:09:00,
2014-12-20 02:14:00,20.9,18.7,30.33,WNW,302,2.0,2.0,91,0.00,,---,0.00,VWS V15.00,2014-12-20 08:14:00,
2014-12-20 02:19:00,21.2,19.2,30.33,WNW,302,3.0,3.0,92,0.00,,---,0.00,VWS V15.00,2014-12-20 08:19:00,
2014-12-20 02:24:00,21.5,19.5,30.33,WNW,302,2.0,2.0,92,0.00,,---,0.00,VWS V15.00,2014-12-20 08:24:00,
2014-12-20 02:29:00,21.7,19.5,30.33,WNW,302,1.0,1.0,91,0.00,,---,0.00,VWS V15.00,2014-12-20 08:29:00,
2014-12-20 02:34:00,21.7,19.5,30.33,WNW,302,0.0,0.0,91,0.00,,---,0.00,VWS V15.00,2014-12-20 08:34:00,
2014-12-20 02:39:00,21.7,19.5,30.33,WNW,302,0.0,0.0,91,0.00,,---,0.00,VWS V15.00,2014-12-20 08:39:00,
2014-12-20 02:44:00,21.7,19.2,30.33,WNW,302,0.0,2.0,90,0.00,,---,0.00,VWS V15.00,2014-12-20 08:44:00,
2014-12-20 02:49:00,21.7,19.5,30.33,WNW,302,3.0,3.0,91,0.00,,---,0.00,VWS V15.00,2014-12-20 08:49:00,
2014-12-20 02:54:00,21.7,19.2,30.33,WNW,302,0.0,0.0,90,0.00,,---,0.00,VWS V15.00,2014-12-20 08:54:00,
2014-12-20 02:59:00,21.8,19.6,30.33,WNW,302,0.0,3.0,91,0.00,,---,0.00,VWS V15.00,2014-12-20 08:59:00,
2014-12-20 03:04:00,21.8,19.6,30.33,WNW,302,0.0,3.0,91,0.00,,---,0.00,VWS V15.00,2014-12-20 09:04:00,
2014-12-20 03:09:00,21.8,19.6,30.33,WNW,302,0.0,3.0,91,0.00,,---,0.00,VWS V15.00,2014-12-20 09:09:00,
2014-12-20 03:14:00,21.9,19.7,30.33,WNW,302,1.0,3.0,91,0.00,,---,0.00,VWS V15.00,2014-12-20 09:14:00,
2014-12-20 03:19:00,22.0,19.8,30.33,WNW,302,0.0,0.0,91,0.00,,---,0.00,VWS V15.00,2014-12-20 09:19:00,
2014-12-20 03:24:00,22.0,19.8,30.33,WNW,302,2.0,2.0,91,0.00,,---,0.00,VWS V15.00,2014-12-20 09:24:00,
2014-12-20 03:29:00,22.1,19.9,30.33,WNW,302,1.0,1.0,91,0.00,,---,0.00,VWS V15.00,2014-12-20 09:29:00,
2014-12-20 03:34:00,22.2,20.0,30.33,WNW,302,0.0,0.0,91,0.00,,---,0.00,VWS V15.00,2014-12-20 09:34:00,
2014-12-20 03:39:00,22.4,20.2,30.33,WNW,302,0.0,0.0,91,0.00,,---,0.00,VWS V15.00,2014-12-20 09:39:00,
2014-12-20 03:44:00,22.4,20.2,30.33,WNW,302,0.0,0.0,91,0.00,,---,0.00,VWS V15.00,2014-12-20 09:44:00,
2014-12-20 03:49:00,22.3,20.1,30.33,WNW,302,1.0,1.0,91,0.00,,---,0.00,VWS V15.00,2014-12-20 09:49:00,
2014-12-20 03:54:00,22.3,20.1,30.32,WNW,302,0.0,0.0,91,0.00,,---,0.00,VWS V15.00,2014-12-20 09:54:00,
2014-12-20 03:59:00,22.4,20.2,30.32,WNW,302,0.0,2.0,91,0.00,,---,0.00,VWS V15.00,2014-12-20 09:59:00,
2014-12-20 04:04:00,22.5,20.3,30.32,WNW,302,0.0,0.0,91,0.00,,---,0.00,VWS V15.00,2014-12-20 10:04:00,
2014-12-20 04:09:00,22.5,20.3,30.32,WNW,302,2.0,2.0,91,0.00,,---,0.00,VWS V15.00,2014-12-20 10:09:00,
2014-12-20 04:14:00,22.5,20.3,30.32,WNW,302,0.0,4.0,91,0.00,,---,0.00,VWS V15.00,2014-12-20 10:14:00,
2014-12-20 04:19:00,22.6,20.4,30.32,WNW,302,0.0,2.0,91,0.00,,---,0.00,VWS V15.00,2014-12-20 10:19:00,
2014-12-20 04:24:00,22.7,20.5,30.32,WNW,302,0.0,0.0,91,0.00,,---,0.00,VWS V15.00,2014-12-20 10:24:00,
2014-12-20 04:29:00,22.8,20.6,30.32,WNW,302,0.0,0.0,91,0.00,,---,0.00,VWS V15.00,2014-12-20 10:29:00,
2014-12-20 04:34:00,22.9,20.7,30.32,WNW,302,0.0,2.0,91,0.00,,---,0.00,VWS V15.00,2014-12-20 10:34:00,
2014-12-20 04:39:00,23.0,20.8,30.32,WNW,302,0.0,3.0,91,0.00,,---,0.00,VWS V15.00,2014-12-20 10:39:00,
2014-12-20 04:44:00,23.1,20.9,30.32,WNW,302,2.0,3.0,91,0.00,,---,0.00,VWS V15.00,2014-12-20 10:44:00,
2014-12-20 04:49:00,23.3,20.8,30.32,WNW,303,3.0,5.0,90,0.00,,---,0.00,VWS V15.00,2014-12-20 10:49:00,
2014-12-20 04:54:00,23.4,20.9,30.32,NW,304,1.0,4.0,90,0.00,,---,0.00,VWS V15.00,2014-12-20 10:54:00,
2014-12-20 04:59:00,23.5,21.0,30.32,NW,304,4.0,4.0,90,0.00,,---,0.00,VWS V15.00,2014-12-20 10:59:00,
2014-12-20 05:04:00,23.6,20.8,30.32,NW,305,2.0,4.0,89,0.00,,---,0.00,VWS V15.00,2014-12-20 11:04:00,
2014-12-20 05:09:00,23.7,20.9,30.32,NW,305,1.0,4.0,89,0.00,,---,0.00,VWS V15.00,2014-12-20 11:09:00,
2014-12-20 05:14:00,23.8,21.0,30.32,NW,305,2.0,3.0,89,0.00,,---,0.00,VWS V15.00,2014-12-20 11:14:00,
2014-12-20 05:19:00,23.8,21.0,30.32,NW,305,2.0,3.0,89,0.00,,---,0.00,VWS V15.00,2014-12-20 11:19:00,
2014-12-20 05:24:00,23.9,21.1,30.32,NW,305,2.0,4.0,89,0.00,,---,0.00,VWS V15.00,2014-12-20 11:24:00,
2014-12-20 05:29:00,23.9,21.1,30.32,NW,306,3.0,4.0,89,0.00,,---,0.00,VWS V15.00,2014-12-20 11:29:00,
2014-12-20 05:34:00,23.9,21.1,30.32,NW,310,3.0,4.0,89,0.00,,---,0.00,VWS V15.00,2014-12-20 11:34:00,
2014-12-20 05:39:00,23.9,21.1,30.32,NW,326,5.0,5.0,89,0.00,,---,0.00,VWS V15.00,2014-12-20 11:39:00,
2014-12-20 05:44:00,23.9,21.1,30.32,NW,326,1.0,5.0,89,0.00,,---,0.00,VWS V15.00,2014-12-20 11:44:00,
2014-12-20 05:49:00,23.9,21.1,30.32,NW,326,3.0,3.0,89,0.00,,---,0.00,VWS V15.00,2014-12-20 11:49:00,
2014-12-20 05:54:00,23.9,21.1,30.32,NNW,327,3.0,4.0,89,0.00,,---,0.00,VWS V15.00,2014-12-20 11:54:00,
2014-12-20 05:59:00,23.8,21.0,30.32,NW,326,3.0,3.0,89,0.00,,---,0.00,VWS V15.00,2014-12-20 11:59:00,
2014-12-20 06:04:00,23.7,20.9,30.31,NW,326,0.0,3.0,89,0.00,,---,0.00,VWS V15.00,2014-12-20 12:04:00,
2014-12-20 06:09:00,23.7,20.9,30.32,NW,326,0.0,0.0,89,0.00,,---,0.00,VWS V15.00,2014-12-20 12:09:00,
2014-12-20 06:14:00,23.6,20.8,30.32,NW,326,2.0,2.0,89,0.00,,---,0.00,VWS V15.00,2014-12-20 12:14:00,
2014-12-20 06:19:00,23.6,20.8,30.31,NW,326,0.0,1.0,89,0.00,,---,0.00,VWS V15.00,2014-12-20 12:19:00,
2014-12-20 06:24:00,23.5,20.7,30.32,NW,326,0.0,1.0,89,0.00,,---,0.00,VWS V15.00,2014-12-20 12:24:00,
2014-12-20 06:29:00,23.4,20.6,30.32,NW,326,1.0,2.0,89,0.00,,---,0.00,VWS V15.00,2014-12-20 12:29:00,
2014-12-20 06:34:00,23.3,20.5,30.32,NW,326,0.0,1.0,89,0.00,,---,0.00,VWS V15.00,2014-12-20 12:34:00,
2014-12-20 06:39:00,23.3,20.5,30.32,NW,326,1.0,2.0,89,0.00,,---,0.00,VWS V15.00,2014-12-20 12:39:00,
2014-12-20 06:44:00,23.3,20.8,30.32,NW,326,1.0,3.0,90,0.00,,---,0.00,VWS V15.00,2014-12-20 12:44:00,
2014-12-20 06:49:00,23.3,20.8,30.32,NW,326,3.0,3.0,90,0.00,,---,0.00,VWS V15.00,2014-12-20 12:49:00,
2014-12-20 06:54:00,23.3,20.8,30.32,NW,326,0.0,3.0,90,0.00,,---,0.00,VWS V15.00,2014-12-20 12:54:00,
2014-12-20 06:59:00,23.4,20.9,30.32,NW,326,0.0,2.0,90,0.00,,---,0.00,VWS V15.00,2014-12-20 12:59:00,
2014-12-20 07:04:00,23.4,20.9,30.32,NW,326,0.0,2.0,90,0.00,,---,0.00,VWS V15.00,2014-12-20 13:04:00,
2014-12-20 07:09:00,23.5,21.0,30.32,NW,326,2.0,2.0,90,0.00,,---,0.00,VWS V15.00,2014-12-20 13:09:00,
2014-12-20 07:14:00,23.6,21.4,30.32,NW,326,0.0,3.0,91,0.00,,---,0.00,VWS V15.00,2014-12-20 13:14:00,
2014-12-20 07:19:00,23.6,21.4,30.32,NW,326,2.0,3.0,91,0.00,,---,0.00,VWS V15.00,2014-12-20 13:19:00,
2014-12-20 07:24:00,23.7,21.5,30.31,NW,326,0.0,3.0,91,0.00,,---,0.00,VWS V15.00,2014-12-20 13:24:00,
2014-12-20 07:29:00,23.7,21.5,30.32,NW,326,0.0,2.0,91,0.00,,---,0.00,VWS V15.00,2014-12-20 13:29:00,
2014-12-20 07:34:00,23.7,21.5,30.32,NW,326,1.0,1.0,91,0.00,,---,0.00,VWS V15.00,2014-12-20 13:34:00,
2014-12-20 07:39:00,23.8,21.6,30.32,NW,326,0.0,2.0,91,0.00,,---,0.00,VWS V15.00,2014-12-20 13:39:00,
2014-12-20 07:44:00,23.9,21.7,30.32,NW,326,0.0,2.0,91,0.00,,---,0.00,VWS V15.00,2014-12-20 13:44:00,
2014-12-20 07:49:00,23.9,21.7,30.32,NW,326,0.0,2.0,91,0.00,,---,0.00,VWS V15.00,2014-12-20 13:49:00,
2014-12-20 07:54:00,24.0,21.8,30.32,NW,326,0.0,3.0,91,0.00,,---,0.00,VWS V15.00,2014-12-20 13:54:00,
2014-12-20 07:59:00,24.1,21.9,30.32,NW,326,0.0,2.0,91,0.00,,---,0.00,VWS V15.00,2014-12-20 13:59:00,
2014-12-20 08:04:00,24.2,22.0,30.32,NW,326,0.0,0.0,91,0.00,,---,0.00,VWS V15.00,2014-12-20 14:04:00,
2014-12-20 08:09:00,24.3,21.8,30.32,NW,326,0.0,0.0,90,0.00,,---,0.00,VWS V15.00,2014-12-20 14:09:00,
2014-12-20 08:14:00,24.5,22.0,30.32,NW,326,0.0,0.0,90,0.00,,---,0.00,VWS V15.00,2014-12-20 14:14:00,
2014-12-20 08:19:00,24.6,22.1,30.32,NW,326,0.0,0.0,90,0.00,,---,0.00,VWS V15.00,2014-12-20 14:19:00,
2014-12-20 08:24:00,24.7,22.2,30.32,NW,326,0.0,0.0,90,0.00,,---,0.00,VWS V15.00,2014-12-20 14:24:00,
2014-12-20 08:29:00,24.9,22.4,30.32,NW,326,0.0,0.0,90,0.00,,---,0.00,VWS V15.00,2014-12-20 14:29:00,
2014-12-20 08:34:00,25.1,22.3,30.32,NW,326,0.0,0.0,89,0.00,,---,0.00,VWS V15.00,2014-12-20 14:34:00,
2014-12-20 08:39:00,25.2,22.4,30.32,NW,326,0.0,0.0,89,0.00,,---,0.00,VWS V15.00,2014-12-20 14:39:00,
2014-12-20 08:44:00,25.3,22.2,30.32,NW,326,0.0,0.0,88,0.00,,---,0.00,VWS V15.00,2014-12-20 14:44:00,
2014-12-20 08:49:00,25.4,22.4,30.32,NW,326,0.0,0.0,88,0.00,,---,0.00,VWS V15.00,2014-12-20 14:49:00,
2014-12-20 08:54:00,25.4,22.4,30.32,NW,326,0.0,0.0,88,0.00,,---,0.00,VWS V15.00,2014-12-20 14:54:00,
2014-12-20 08:59:00,25.5,22.2,30.32,NW,326,2.0,3.0,87,0.00,,---,0.00,VWS V15.00,2014-12-20 14:59:00,
2014-12-20 09:04:00,25.5,22.2,30.32,NW,326,1.0,3.0,87,0.00,,---,0.00,VWS V15.00,2014-12-20 15:04:00,
2014-12-20 09:09:00,25.6,22.3,30.32,NW,326,2.0,3.0,87,0.00,,---,0.00,VWS V15.00,2014-12-20 15:09:00,
2014-12-20 09:14:00,25.7,22.4,30.32,NW,326,0.0,1.0,87,0.00,,---,0.00,VWS V15.00,2014-12-20 15:14:00,
2014-12-20 09:19:00,25.9,22.6,30.32,NW,326,0.0,1.0,87,0.00,,---,0.00,VWS V15.00,2014-12-20 15:19:00,
2014-12-20 09:24:00,26.0,22.7,30.32,NW,326,1.0,2.0,87,0.00,,---,0.00,VWS V15.00,2014-12-20 15:24:00,
2014-12-20 09:29:00,26.2,22.9,30.32,NW,326,0.0,2.0,87,0.00,,---,0.00,VWS V15.00,2014-12-20 15:29:00,
2014-12-20 09:34:00,26.3,23.0,30.32,NW,326,1.0,2.0,87,0.00,,---,0.00,VWS V15.00,2014-12-20 15:34:00,
2014-12-20 09:39:00,26.5,23.2,30.32,NW,326,0.0,1.0,87,0.00,,---,0.00,VWS V15.00,2014-12-20 15:39:00,
2014-12-20 09:44:00,26.6,23.0,30.32,NW,326,2.0,3.0,86,0.00,,---,0.00,VWS V15.00,2014-12-20 15:44:00,
2014-12-20 09:49:00,26.5,22.9,30.32,NW,326,2.0,3.0,86,0.00,,---,0.00,VWS V15.00,2014-12-20 15:49:00,
2014-12-20 09:54:00,26.6,23.0,30.32,NW,326,1.0,3.0,86,0.00,,---,0.00,VWS V15.00,2014-12-20 15:54:00,
2014-12-20 09:59:00,26.8,23.2,30.32,NW,326,0.0,2.0,86,0.00,,---,0.00,VWS V15.00,2014-12-20 15:59:00,
2014-12-20 10:04:00,27.1,23.5,30.32,NW,326,0.0,1.0,86,0.00,,---,0.00,VWS V15.00,2014-12-20 16:04:00,
2014-12-20 10:09:00,27.3,23.7,30.32,NW,326,1.0,2.0,86,0.00,,---,0.00,VWS V15.00,2014-12-20 16:09:00,
2014-12-20 10:14:00,27.6,24.0,30.32,NW,326,0.0,1.0,86,0.00,,---,0.00,VWS V15.00,2014-12-20 16:14:00,
2014-12-20 10:19:00,27.8,24.2,30.31,NW,326,0.0,2.0,86,0.00,,---,0.00,VWS V15.00,2014-12-20 16:19:00,
2014-12-20 10:24:00,27.8,23.9,30.31,NW,326,0.0,2.0,85,0.00,,---,0.00,VWS V15.00,2014-12-20 16:24:00,
2014-12-20 10:29:00,28.0,24.1,30.31,NW,326,3.0,3.0,85,0.00,,---,0.00,VWS V15.00,2014-12-20 16:29:00,
2014-12-20 10:34:00,28.1,24.2,30.31,NW,326,0.0,0.0,85,0.00,,---,0.00,VWS V15.00,2014-12-20 16:34:00,
2014-12-20 10:39:00,28.5,24.6,30.31,NW,326,0.0,2.0,85,0.00,,---,0.00,VWS V15.00,2014-12-20 16:39:00,
2014-12-20 10:44:00,28.7,24.2,30.31,NW,326,0.0,2.0,83,0.00,,---,0.00,VWS V15.00,2014-12-20 16:44:00,
2014-12-20 10:49:00,28.9,24.7,30.31,NW,326,0.0,2.0,84,0.00,,---,0.00,VWS V15.00,2014-12-20 16:49:00,
2014-12-20 10:54:00,29.2,24.7,30.31,NW,326,1.0,2.0,83,0.00,,---,0.00,VWS V15.00,2014-12-20 16:54:00,
2014-12-20 10:59:00,29.6,25.1,30.31,NW,326,0.0,1.0,83,0.00,,---,0.00,VWS V15.00,2014-12-20 16:59:00,
2014-12-20 11:04:00,29.9,25.1,30.31,NW,326,0.0,0.0,82,0.00,,---,0.00,VWS V15.00,2014-12-20 17:04:00,
2014-12-20 11:09:00,29.8,24.7,30.31,NW,326,0.0,1.0,81,0.00,,---,0.00,VWS V15.00,2014-12-20 17:09:00,
2014-12-20 11:14:00,29.8,25.0,30.31,NW,326,0.0,0.0,82,0.00,,---,0.00,VWS V15.00,2014-12-20 17:14:00,
2014-12-20 11:19:00,30.0,25.2,30.31,NW,326,1.0,2.0,82,0.00,,---,0.00,VWS V15.00,2014-12-20 17:19:00,
2014-12-20 11:24:00,30.3,25.5,30.30,NW,326,0.0,2.0,82,0.00,,---,0.00,VWS V15.00,2014-12-20 17:24:00,
2014-12-20 11:29:00,30.5,25.7,30.30,NW,326,0.0,1.0,82,0.00,,---,0.00,VWS V15.00,2014-12-20 17:29:00,
2014-12-20 11:34:00,30.6,25.5,30.30,NW,326,0.0,2.0,81,0.00,,---,0.00,VWS V15.00,2014-12-20 17:34:00,
2014-12-20 11:39:00,30.8,25.7,30.30,NW,326,0.0,2.0,81,0.00,,---,0.00,VWS V15.00,2014-12-20 17:39:00,
2014-12-20 11:44:00,30.9,25.8,30.30,NW,326,1.0,2.0,81,0.00,,---,0.00,VWS V15.00,2014-12-20 17:44:00,
2014-12-20 11:49:00,31.0,25.6,30.30,NW,326,0.0,3.0,80,0.00,,---,0.00,VWS V15.00,2014-12-20 17:49:00,
2014-12-20 11:54:00,31.1,26.0,30.29,NW,326,0.0,3.0,81,0.00,,---,0.00,VWS V15.00,2014-12-20 17:54:00,
2014-12-20 11:59:00,31.2,25.8,30.29,NW,326,1.0,1.0,80,0.00,,---,0.00,VWS V15.00,2014-12-20 17:59:00,
2014-12-20 12:04:00,31.4,26.2,30.29,NW,326,0.0,1.0,81,0.00,,---,0.00,VWS V15.00,2014-12-20 18:04:00,
2014-12-20 12:09:00,31.5,26.0,30.29,NW,326,0.0,3.0,80,0.00,,---,0.00,VWS V15.00,2014-12-20 18:09:00,
2014-12-20 12:14:00,31.5,26.0,30.29,NW,326,1.0,2.0,80,0.00,,---,0.00,VWS V15.00,2014-12-20 18:14:00,
2014-12-20 12:19:00,31.5,26.0,30.29,NW,326,0.0,2.0,80,0.00,,---,0.00,VWS V15.00,2014-12-20 18:19:00,
2014-12-20 12:23:00,31.6,25.9,30.29,NW,326,0.0,4.0,79,0.00,,---,0.00,VWS V15.00,2014-12-20 18:23:00,
2014-12-20 12:28:00,31.4,25.6,30.28,NW,326,0.0,2.0,79,0.00,,---,0.00,VWS V15.00,2014-12-20 18:28:00,
2014-12-20 12:33:00,31.4,25.6,30.28,NW,326,0.0,1.0,79,0.00,,---,0.00,VWS V15.00,2014-12-20 18:33:00,
2014-12-20 12:38:00,31.5,26.0,30.28,NW,326,0.0,2.0,80,0.00,,---,0.00,VWS V15.00,2014-12-20 18:38:00,
2014-12-20 12:43:00,31.5,25.8,30.28,NW,326,1.0,2.0,79,0.00,,---,0.00,VWS V15.00,2014-12-20 18:43:00,
2014-12-20 12:48:00,31.4,26.0,30.28,NW,326,0.0,3.0,80,0.00,,---,0.00,VWS V15.00,2014-12-20 18:48:00,
2014-12-20 12:53:00,31.3,25.9,30.28,NW,326,0.0,4.0,80,0.00,,---,0.00,VWS V15.00,2014-12-20 18:53:00,
2014-12-20 12:58:00,31.3,25.9,30.28,NW,326,2.0,3.0,80,0.00,,---,0.00,VWS V15.00,2014-12-20 18:58:00,
2014-12-20 13:03:00,31.3,25.9,30.28,NW,326,0.0,2.0,80,0.00,,---,0.00,VWS V15.00,2014-12-20 19:03:00,
2014-12-20 13:08:00,31.2,25.8,30.28,NW,326,1.0,2.0,80,0.00,,---,0.00,VWS V15.00,2014-12-20 19:08:00,
2014-12-20 13:13:00,31.2,25.8,30.28,NW,326,0.0,2.0,80,0.00,,---,0.00,VWS V15.00,2014-12-20 19:13:00,
2014-12-20 13:18:00,31.1,25.7,30.28,NW,326,0.0,2.0,80,0.00,,---,0.00,VWS V15.00,2014-12-20 19:18:00,
2014-12-20 13:23:00,31.1,26.0,30.28,NW,326,0.0,1.0,81,0.00,,---,0.00,VWS V15.00,2014-12-20 19:23:00,
2014-12-20 13:28:00,31.1,25.7,30.28,NW,326,3.0,3.0,80,0.00,,---,0.00,VWS V15.00,2014-12-20 19:28:00,
2014-12-20 13:33:00,31.0,25.9,30.28,NW,326,0.0,1.0,81,0.00,,---,0.00,VWS V15.00,2014-12-20 19:33:00,
2014-12-20 13:38:00,31.0,25.9,30.28,NW,326,2.0,3.0,81,0.00,,---,0.00,VWS V15.00,2014-12-20 19:38:00,
2014-12-20 13:43:00,31.0,26.2,30.28,NW,326,0.0,3.0,82,0.00,,---,0.00,VWS V15.00,2014-12-20 19:43:00,
2014-12-20 13:48:00,31.0,26.2,30.27,NW,326,2.0,2.0,82,0.00,,---,0.00,VWS V15.00,2014-12-20 19:48:00,
2014-12-20 13:53:00,30.9,26.1,30.27,NW,326,0.0,2.0,82,0.00,,---,0.00,VWS V15.00,2014-12-20 19:53:00,
2014-12-20 13:58:00,30.9,26.1,30.27,NW,326,0.0,1.0,82,0.00,,---,0.00,VWS V15.00,2014-12-20 19:58:00,
2014-12-20 14:03:00,30.9,26.1,30.27,NW,326,0.0,0.0,82,0.00,,---,0.00,VWS V15.00,2014-12-20 20:03:00,
2014-12-20 14:08:00,31.0,26.2,30.27,NW,326,2.0,2.0,82,0.00,,---,0.00,VWS V15.00,2014-12-20 20:08:00,
2014-12-20 14:13:00,30.8,26.0,30.27,NW,326,2.0,2.0,82,0.00,,---,0.00,VWS V15.00,2014-12-20 20:13:00,
2014-12-20 14:18:00,30.7,25.9,30.27,NW,326,0.0,2.0,82,0.00,,---,0.00,VWS V15.00,2014-12-20 20:18:00,
2014-12-20 14:23:00,30.7,25.9,30.27,NW,326,0.0,0.0,82,0.00,,---,0.00,VWS V15.00,2014-12-20 20:23:00,
2014-12-20 14:28:00,30.7,26.2,30.27,NW,326,0.0,1.0,83,0.00,,---,0.00,VWS V15.00,2014-12-20 20:28:00,
2014-12-20 14:33:00,30.7,26.2,30.28,NW,326,0.0,4.0,83,0.00,,---,0.00,VWS V15.00,2014-12-20 20:33:00,
2014-12-20 14:38:00,30.6,25.8,30.28,NW,326,0.0,2.0,82,0.00,,---,0.00,VWS V15.00,2014-12-20 20:38:00,
2014-12-20 14:43:00,30.4,25.9,30.28,NW,326,1.0,2.0,83,0.00,,---,0.00,VWS V15.00,2014-12-20 20:43:00,
2014-12-20 14:48:00,30.3,25.8,30.28,NW,326,0.0,2.0,83,0.00,,---,0.00,VWS V15.00,2014-12-20 20:48:00,
2014-12-20 14:53:00,30.4,26.1,30.28,NW,325,4.0,4.0,84,0.00,,---,0.00,VWS V15.00,2014-12-20 20:53:00,
2014-12-20 14:58:00,30.4,26.1,30.28,NW,325,1.0,3.0,84,0.00,,---,0.00,VWS V15.00,2014-12-20 20:58:00,
2014-12-20 15:03:00,30.4,26.1,30.28,NW,324,0.0,4.0,84,0.00,,---,0.00,VWS V15.00,2014-12-20 21:03:00,
2014-12-20 15:08:00,30.3,26.1,30.28,NW,321,1.0,4.0,84,0.00,,---,0.00,VWS V15.00,2014-12-20 21:08:00,
2014-12-20 15:13:00,30.2,26.0,30.28,NW,321,2.0,3.0,84,0.00,,---,0.00,VWS V15.00,2014-12-20 21:13:00,
2014-12-20 15:18:00,30.2,26.0,30.28,NW,321,2.0,2.0,84,0.00,,---,0.00,VWS V15.00,2014-12-20 21:18:00,
2014-12-20 15:23:00,30.1,25.9,30.28,NW,321,2.0,3.0,84,0.00,,---,0.00,VWS V15.00,2014-12-20 21:23:00,
2014-12-20 15:28:00,29.9,25.7,30.28,NW,321,0.0,2.0,84,0.00,,---,0.00,VWS V15.00,2014-12-20 21:28:00,
2014-12-20 15:33:00,29.9,25.7,30.28,NW,321,0.0,3.0,84,0.00,,---,0.00,VWS V15.00,2014-12-20 21:33:00,
2014-12-20 15:38:00,30.0,26.0,30.28,NW,321,1.0,2.0,85,0.00,,---,0.00,VWS V15.00,2014-12-20 21:38:00,
2014-12-20 15:43:00,29.9,26.0,30.28,NW,321,0.0,2.0,85,0.00,,---,0.00,VWS V15.00,2014-12-20 21:43:00,
2014-12-20 15:48:00,29.9,26.0,30.28,NW,321,0.0,0.0,85,0.00,,---,0.00,VWS V15.00,2014-12-20 21:48:00,
2014-12-20 15:53:00,29.9,26.0,30.28,NW,321,2.0,2.0,85,0.00,,---,0.00,VWS V15.00,2014-12-20 21:53:00,
2014-12-20 15:58:00,29.9,26.2,30.28,NW,321,2.0,3.0,86,0.00,,---,0.00,VWS V15.00,2014-12-20 21:58:00,
2014-12-20 16:03:00,29.9,26.2,30.28,NW,321,1.0,3.0,86,0.00,,---,0.00,VWS V15.00,2014-12-20 22:03:00,
2014-12-20 16:08:00,29.8,26.1,30.28,NW,321,2.0,4.0,86,0.00,,---,0.00,VWS V15.00,2014-12-20 22:08:00,
2014-12-20 16:13:00,29.8,26.1,30.29,NW,321,1.0,4.0,86,0.00,,---,0.00,VWS V15.00,2014-12-20 22:13:00,
2014-12-20 16:18:00,29.7,26.0,30.28,NW,321,0.0,3.0,86,0.00,,---,0.00,VWS V15.00,2014-12-20 22:18:00,
2014-12-20 16:23:00,29.6,25.9,30.28,NW,321,1.0,2.0,86,0.00,,---,0.00,VWS V15.00,2014-12-20 22:23:00,
2014-12-20 16:28:00,29.5,26.1,30.28,NW,321,0.0,1.0,87,0.00,,---,0.00,VWS V15.00,2014-12-20 22:28:00,
2014-12-20 16:33:00,29.5,26.1,30.28,NW,321,0.0,1.0,87,0.00,,---,0.00,VWS V15.00,2014-12-20 22:33:00,
2014-12-20 16:38:00,29.5,26.1,30.28,NW,321,0.0,1.0,87,0.00,,---,0.00,VWS V15.00,2014-12-20 22:38:00,
2014-12-20 16:43:00,29.6,26.5,30.28,NW,321,0.0,0.0,88,0.00,,---,0.00,VWS V15.00,2014-12-20 22:43:00,
2014-12-20 16:48:00,29.6,26.5,30.28,NW,321,0.0,0.0,88,0.00,,---,0.00,VWS V15.00,2014-12-20 22:48:00,
2014-12-20 16:53:00,29.5,26.4,30.28,NW,321,0.0,0.0,88,0.00,,---,0.00,VWS V15.00,2014-12-20 22:53:00,
2014-12-20 16:58:00,29.4,26.3,30.28,NW,321,0.0,0.0,88,0.00,,---,0.00,VWS V15.00,2014-12-20 22:58:00,
2014-12-20 17:03:00,29.3,26.2,30.28,NW,321,0.0,2.0,88,0.00,,---,0.00,VWS V15.00,2014-12-20 23:03:00,
2014-12-20 17:08:00,29.2,26.1,30.28,NW,321,0.0,2.0,88,0.00,,---,0.00,VWS V15.00,2014-12-20 23:08:00,
2014-12-20 17:13:00,29.1,26.0,30.28,NW,321,0.0,0.0,88,0.00,,---,0.00,VWS V15.00,2014-12-20 23:13:00,
2014-12-20 17:18:00,29.1,26.0,30.28,NW,321,0.0,0.0,88,0.00,,---,0.00,VWS V15.00,2014-12-20 23:18:00,
2014-12-20 17:23:00,29.0,26.2,30.28,NW,321,0.0,0.0,89,0.00,,---,0.00,VWS V15.00,2014-12-20 23:23:00,
2014-12-20 17:28:00,29.0,26.2,30.28,NW,321,0.0,0.0,89,0.00,,---,0.00,VWS V15.00,2014-12-20 23:28:00,
2014-12-20 17:33:00,29.0,26.2,30.28,NW,321,0.0,0.0,89,0.00,,---,0.00,VWS V15.00,2014-12-20 23:33:00,
2014-12-20 17:38:00,28.9,26.1,30.28,NW,321,0.0,0.0,89,0.00,,---,0.00,VWS V15.00,2014-12-20 23:38:00,
2014-12-20 17:43:00,28.9,26.1,30.28,NW,321,0.0,0.0,89,0.00,,---,0.00,VWS V15.00,2014-12-20 23:43:00,
2014-12-20 17:48:00,28.8,26.0,30.28,NW,321,0.0,0.0,89,0.00,,---,0.00,VWS V15.00,2014-12-20 23:48:00,
2014-12-20 17:53:00,28.8,26.0,30.28,NW,321,0.0,0.0,89,0.00,,---,0.00,VWS V15.00,2014-12-20 23:53:00,
2014-12-20 17:58:00,28.8,26.0,30.29,NW,321,3.0,3.0,89,0.00,,---,0.00,VWS V15.00,2014-12-20 23:58:00,
2014-12-20 18:03:00,28.8,26.2,30.29,NW,321,2.0,3.0,90,0.00,,---,0.00,VWS V15.00,2014-12-21 00:03:00,
2014-12-20 18:08:00,28.8,26.2,30.29,NW,321,2.0,3.0,90,0.00,,---,0.00,VWS V15.00,2014-12-21 00:08:00,
2014-12-20 18:13:00,28.8,26.2,30.29,NW,321,0.0,3.0,90,0.00,,---,0.00,VWS V15.00,2014-12-21 00:13:00,
2014-12-20 18:18:00,28.8,26.2,30.29,NW,321,2.0,3.0,90,0.00,,---,0.00,VWS V15.00,2014-12-21 00:18:00,
2014-12-20 18:23:00,28.8,26.2,30.29,NW,321,2.0,3.0,90,0.00,,---,0.00,VWS V15.00,2014-12-21 00:23:00,
2014-12-20 18:28:00,28.9,26.3,30.29,NW,321,1.0,3.0,90,0.00,,---,0.00,VWS V15.00,2014-12-21 00:28:00,
2014-12-20 18:33:00,28.9,26.3,30.29,NW,321,3.0,4.0,90,0.00,,---,0.00,VWS V15.00,2014-12-21 00:33:00,
2014-12-20 18:38:00,28.9,26.3,30.29,NW,318,2.0,3.0,90,0.00,,---,0.00,VWS V15.00,2014-12-21 00:38:00,
2014-12-20 18:43:00,29.0,26.4,30.29,WNW,303,4.0,4.0,90,0.00,,---,0.00,VWS V15.00,2014-12-21 00:43:00,
2014-12-20 18:48:00,29.0,26.2,30.29,WNW,290,3.0,6.0,89,0.00,,---,0.00,VWS V15.00,2014-12-21 00:48:00,
2014-12-20 18:53:00,29.0,26.2,30.29,WNW,287,1.0,5.0,89,0.00,,---,0.00,VWS V15.00,2014-12-21 00:53:00,
2014-12-20 18:58:00,29.1,26.3,30.30,West,279,3.0,5.0,89,0.00,,---,0.00,VWS V15.00,2014-12-21 00:58:00,
2014-12-20 19:03:00,29.1,26.3,30.30,West,263,4.0,6.0,89,0.00,,---,0.00,VWS V15.00,2014-12-21 01:03:00,
2014-12-20 19:08:00,29.2,26.4,30.30,West,261,4.0,6.0,89,0.00,,---,0.00,VWS V15.00,2014-12-21 01:08:00,
2014-12-20 19:13:00,29.1,26.3,30.29,West,260,4.0,6.0,89,0.00,,---,0.00,VWS V15.00,2014-12-21 01:13:00,
2014-12-20 19:18:00,29.2,26.4,30.29,West,259,2.0,6.0,89,0.00,,---,0.00,VWS V15.00,2014-12-21 01:18:00,
2014-12-20 19:23:00,29.2,26.4,30.29,West,259,3.0,4.0,89,0.00,,---,0.00,VWS V15.00,2014-12-21 01:23:00,
2014-12-20 19:28:00,29.2,26.4,30.29,West,259,3.0,5.0,89,0.00,,---,0.00,VWS V15.00,2014-12-21 01:28:00,
2014-12-20 19:33:00,29.2,26.4,30.29,West,259,3.0,4.0,89,0.00,,---,0.00,VWS V15.00,2014-12-21 01:33:00,
2014-12-20 19:38:00,29.1,26.3,30.29,West,259,1.0,2.0,89,0.00,,---,0.00,VWS V15.00,2014-12-21 01:38:00,
2014-12-20 19:43:00,29.1,26.3,30.28,West,259,0.0,3.0,89,0.00,,---,0.00,VWS V15.00,2014-12-21 01:43:00,
2014-12-20 19:48:00,29.1,26.3,30.28,West,259,2.0,3.0,89,0.00,,---,0.00,VWS V15.00,2014-12-21 01:48:00,
2014-12-20 19:53:00,29.1,26.3,30.28,West,259,0.0,0.0,89,0.00,,---,0.00,VWS V15.00,2014-12-21 01:53:00,
2014-12-20 19:58:00,29.1,26.5,30.28,West,259,2.0,2.0,90,0.00,,---,0.00,VWS V15.00,2014-12-21 01:58:00,
2014-12-20 20:03:00,29.1,26.5,30.28,West,259,1.0,2.0,90,0.00,,---,0.00,VWS V15.00,2014-12-21 02:03:00,
2014-12-20 20:08:00,29.1,26.5,30.28,West,259,0.0,2.0,90,0.00,,---,0.00,VWS V15.00,2014-12-21 02:08:00,
2014-12-20 20:13:00,29.1,26.5,30.28,West,259,2.0,2.0,90,0.00,,---,0.00,VWS V15.00,2014-12-21 02:13:00,
2014-12-20 20:18:00,29.1,26.5,30.28,West,259,1.0,2.0,90,0.00,,---,0.00,VWS V15.00,2014-12-21 02:18:00,
2014-12-20 20:23:00,29.2,26.6,30.28,West,259,2.0,3.0,90,0.00,,---,0.00,VWS V15.00,2014-12-21 02:23:00,
2014-12-20 20:28:00,29.2,26.6,30.28,West,259,2.0,4.0,90,0.00,,---,0.00,VWS V15.00,2014-12-21 02:28:00,
2014-12-20 20:33:00,29.2,26.6,30.28,West,259,2.0,3.0,90,0.00,,---,0.00,VWS V15.00,2014-12-21 02:33:00,
2014-12-20 20:38:00,29.3,26.7,30.28,West,259,1.0,3.0,90,0.00,,---,0.00,VWS V15.00,2014-12-21 02:38:00,
2014-12-20 20:43:00,29.3,26.7,30.29,West,259,4.0,4.0,90,0.00,,---,0.00,VWS V15.00,2014-12-21 02:43:00,
2014-12-20 20:48:00,29.3,26.7,30.28,West,259,4.0,5.0,90,0.00,,---,0.00,VWS V15.00,2014-12-21 02:48:00,